Location: Berville
(49.1893°N, 2.0748°E)
Time: 18:47:56
(UTC+00:00)

BREEZE-M DEB (TANK) - Pass Details

Date: 08 February 2023
Orbit: 428 x 13835 km, 45.9° (Epoch: 29 March)

Event Time Altitude Azimuth Distance (km) Brightness Sun altitude
Rises 18:49:04 0° 273° (W) 2,566 7.4 -18.2°
Reaches altitude 10° 18:50:35 10° 267° (W) 1,881 6.3 -18.5°
Maximum altitude 18:54:14 54° 189° (S) 1,088 3.8 -19.1°
Enters shadow 18:59:31 22° 121° (ESE) 3,006 5.5 -19.9°
